Weather History for Spencer, IA

Change the Weather History Date:

Saturday, February 2, 2013

  Actual Average Record
Temperature  
Mean Temperature 18 °F -  
Max Temperature 32 °F 22 °F 52 °F (1987)
Min Temperature 5 °F 3 °F -22 °F (1978)
Degree Days  
Heating Degree Days 46    
Moisture  
Dew Point 14 °F    
Average Humidity 79    
Maximum Humidity 93    
Minimum Humidity 67    
Precipitation  
Precipitation 0.00 in - - ()
Sea Level Pressure  
Sea Level Pressure 30.07 in    
Wind  
Wind Speed 11 mph (West)    
Max Wind Speed 30 mph    
Max Gust Speed 40 mph    
Visibility 6 miles    
Events Fog , Snow    
Averages and records for this station are not official NWS values.
T = Trace of Precipitation, MM = Missing Value Source: NWS Daily Summary

Daily Weather History Graph

Daily Weather History Graph

Search for Another Location

Airport:

Trip Planner

Search our weather history database for the weather conditions in past years. The results will help you decide how hot, cold, wet, or windy it might be!

Date:

Astronomy

Feb. 02, 2013 Rise Set
Actual Time 7:34 AM CST 5:34 PM CST
Civil Twilight 7:04 AM CST 6:04 PM CST
Nautical Twilight 6:30 AM CST 6:38 PM CST
Astronomical Twilight 5:57 AM CST 7:12 PM CST
Moon No Moon Rise 10:33 AM CST (2/2)
Length of Visible Light 11h 00m
Length of Day
10h 00m
Waning Gibbous, 59% of the Moon is Illuminated
Feb 2
Waning Gibbous
Feb 3
Last Quarter
Feb 10
New
Feb 17
First Quarter
Feb 25
Full

Hourly Weather History & Observations

Time (CST) Temp. Windchill Dew Point Humidity Pressure Visibility Wind Dir Wind Speed Gust Speed Precip Events Conditions
12:18 AM 17.6 °F 4.3 °F 12.2 °F 79% 30.00 in 10.0 mi NW 12.7 mph - N/A   Mostly Cloudy
12:53 AM 19.0 °F 5.6 °F 12.9 °F 77% 30.09 in 10.0 mi NNW 13.8 mph - N/A   Overcast
1:53 AM 16.0 °F 1.1 °F 10.0 °F 77% 30.12 in 10.0 mi NNW 15.0 mph - N/A   Partly Cloudy
3:53 AM 12.0 °F -2.7 °F 7.0 °F 80% 30.15 in 10.0 mi NNW 12.7 mph - N/A   Clear
4:53 AM 10.0 °F -3.7 °F 5.0 °F 80% 30.17 in 10.0 mi NNW 10.4 mph - N/A   Clear
6:53 AM 5.0 °F -6.9 °F -0.0 °F 80% 30.22 in 10.0 mi NNW 6.9 mph - N/A   Clear
7:53 AM 6.1 °F -2.8 °F 1.0 °F 80% 30.22 in 10.0 mi North 4.6 mph - N/A   Clear
8:53 AM 9.0 °F -0.9 °F 3.0 °F 77% 30.22 in 10.0 mi North 5.8 mph - N/A   Scattered Clouds
9:53 AM 10.9 °F 1.4 °F 3.0 °F 70% 30.23 in 10.0 mi NNW 5.8 mph - N/A   Overcast
10:31 AM 12.2 °F - 3.2 °F 67% 30.13 in 10.0 mi Calm Calm - N/A   Mostly Cloudy
10:53 AM 12.0 °F 5.9 °F 5.0 °F 73% 30.22 in 10.0 mi West 3.5 mph - N/A   Overcast
12:50 PM 15.8 °F 8.6 °F 6.8 °F 68% 30.12 in 2.5 mi West 4.6 mph - 0.00 in Snow Light Snow
12:53 PM 16.0 °F 8.8 °F 7.0 °F 68% 30.19 in 2.0 mi WSW 4.6 mph - 0.00 in Snow Light Snow
1:00 PM 15.8 °F 8.6 °F 6.8 °F 68% 30.11 in 2.5 mi West 4.6 mph - 0.00 in Snow Light Snow
1:06 PM 15.8 °F - 8.6 °F 73% 30.10 in 1.8 mi Calm Calm - 0.00 in Snow Light Snow
1:34 PM 17.6 °F 12.3 °F 10.4 °F 73% 30.08 in 3.0 mi SW 3.5 mph - 0.00 in Snow Light Snow
1:53 PM 18.0 °F 12.7 °F 10.9 °F 74% 30.14 in 4.0 mi South 3.5 mph - 0.00 in Snow Light Snow
2:04 PM 19.4 °F 12.8 °F 12.2 °F 74% 30.06 in 2.0 mi SSW 4.6 mph - 0.00 in Snow Light Snow
2:21 PM 19.4 °F 11.5 °F 12.2 °F 74% 30.05 in 4.0 mi South 5.8 mph - 0.00 in Snow Light Snow
2:53 PM 21.0 °F 9.9 °F 14.0 °F 74% 30.11 in 10.0 mi SSW 10.4 mph - 0.00 in   Overcast
3:18 PM 21.2 °F 10.1 °F 14.0 °F 74% 30.03 in 10.0 mi SW 10.4 mph - N/A   Overcast
3:53 PM 21.9 °F 11.0 °F 14.0 °F 72% 30.09 in 5.0 mi SSW 10.4 mph - 0.00 in Snow Light Snow
4:00 PM 21.2 °F 10.1 °F 15.8 °F 80% 30.01 in 1.8 mi SSW 10.4 mph - 0.00 in Snow Light Snow
4:10 PM 21.2 °F 10.1 °F 15.8 °F 80% 30.01 in 0.5 mi SSW 10.4 mph - 0.00 in Snow Snow
4:30 PM 21.2 °F 11.7 °F 17.6 °F 86% 30.01 in 0.2 mi SSW 8.1 mph - 0.00 in Fog , Snow Snow
4:45 PM 21.2 °F 11.7 °F 17.6 °F 86% 30.00 in 1.0 mi SSW 8.1 mph - 0.00 in Snow Light Snow
4:53 PM 21.0 °F 13.4 °F 18.0 °F 88% 30.08 in 0.8 mi SSW 5.8 mph - 0.00 in Snow Light Snow
5:11 PM 21.2 °F 9.5 °F 17.6 °F 86% 29.98 in 1.0 mi SSW 11.5 mph - 0.00 in Snow Light Snow
5:18 PM 21.2 °F 10.1 °F 17.6 °F 86% 29.98 in 0.8 mi SSW 10.4 mph - 0.00 in Snow Light Snow
5:27 PM 21.2 °F 10.9 °F 17.6 °F 86% 29.98 in 1.0 mi SSW 9.2 mph - 0.00 in Snow Light Snow
5:53 PM 21.9 °F 11.7 °F 19.0 °F 89% 30.05 in 1.5 mi SSW 9.2 mph - 0.00 in Snow Light Snow
6:05 PM 21.2 °F 10.9 °F 19.4 °F 93% 29.97 in 2.0 mi SSW 9.2 mph - 0.00 in Snow Light Snow
6:20 PM 21.2 °F 10.1 °F 19.4 °F 93% 29.97 in 5.0 mi SSW 10.4 mph - 0.00 in Snow Light Snow
6:53 PM 23.0 °F 11.7 °F 19.9 °F 88% 30.03 in 9.0 mi SSW 11.5 mph - 0.00 in   Overcast
7:37 PM 26.6 °F 16.2 °F 24.8 °F 93% 29.94 in 2.0 mi West 11.5 mph - 0.00 in Snow Light Snow
7:53 PM 28.9 °F 16.5 °F 26.1 °F 89% 30.01 in 6.0 mi West 18.4 mph 23.0 mph 0.00 in   Overcast
8:04 PM 30.2 °F 18.1 °F 26.6 °F 86% 29.94 in 9.0 mi West 18.4 mph 26.5 mph 0.00 in   Overcast
8:53 PM 32.0 °F 18.6 °F 25.0 °F 75% 30.01 in 10.0 mi WNW 25.3 mph 32.2 mph 0.00 in   Mostly Cloudy
9:06 PM 32.0 °F 18.6 °F 24.8 °F 75% 29.95 in 10.0 mi NW 25.3 mph 32.2 mph N/A   Mostly Cloudy
9:53 PM 28.9 °F 13.5 °F 24.1 °F 82% 30.04 in 6.0 mi NW 29.9 mph 40.3 mph 0.00 in   Overcast
10:16 PM 26.6 °F 12.4 °F 21.2 °F 80% 29.98 in 10.0 mi NW 21.9 mph 38.0 mph 0.00 in   Overcast
10:53 PM 24.1 °F 8.7 °F 17.1 °F 75% 30.06 in 10.0 mi NW 23.0 mph 31.1 mph 0.00 in   Mostly Cloudy
11:02 PM 23.0 °F 6.9 °F 17.6 °F 80% 30.00 in 10.0 mi NW 24.2 mph 34.5 mph N/A   Mostly Cloudy
11:24 PM 21.2 °F 4.9 °F 15.8 °F 80% 30.01 in 10.0 mi NW 23.0 mph 32.2 mph N/A   Mostly Cloudy
11:53 PM 21.0 °F 4.6 °F 15.1 °F 78% 30.10 in 10.0 mi NW 23.0 mph 28.8 mph N/A   Overcast